Regional Weather Roundup
Issued by NWS Goodland, KS

Home | Current Version | Previous Version | Graphics & Text | Print | Product List | Glossary On
Versions: 1 2 3 4 5 6 7 8 9 10 11 12 13 14 15 16 17 18 19 20 21 22 23 24 25 26 27 28 29 30 31 32 33 34 35 36 37 38 39 40 41 42 43 44 45 46 47 48 49 50
000
ASUS43 KGLD 040659
RWRGLD

GOODLAND FORECAST AREA HOURLY WEATHER ROUNDUP
NATIONAL WEATHER SERVICE GOODLAND KS
100 AM MDT TUE AUG 04 2015

...OFFICIAL OBSERVATIONS...

CITY           SKY/WX    TMP DP  RH WIND       PRES   REMARKS
GOODLAND KS    CLOUDY    68  60  75 E5        30.01F
HILL CITY KS   CLOUDY    76  66  71 S6        29.94F
IMPERIAL NEB   CLEAR     63  56  78 E3        29.99S
MCCOOK NEB     MOCLDY    72  70  93 NE6       29.95S FOG
AKRON CO       MOCLDY    62  50  64 S8        30.05F
BURLINGTON CO  CLOUDY    65  60  84 CALM      30.03F
LIMON CO       CLOUDY    57  54  89 CALM      30.10F
$$

...UNOFFICIAL OBSERVATIONS...

CITY           SKY/WX    TMP DP  RH WIND       PRES   REMARKS
COLBY KS       CLEAR     72  64  78 SW3       30.00F
NORTON KS      CLEAR     73  66  78 CALM      29.94
SHARON SPRINGS   N/A     69  63  81 S5          N/A
KIT CARSON CO    N/A     64  59  83 MISG        N/A
YUMA CO          N/A     60  52  75 CALM        N/A
$$


USA.gov is the U.S. government's official web portal to all federal, state and local government web resources and services.